COSMOS 2251 DEB, 33792

Orbit data source: Space-Track

COSMOS 2251 DEB, 33792 is space debris in LEO originally from a launch on Wed, 16 Jun 1993 UTC launched from the Plesetsk Missile And Space Complex (PKMTR). The debris from Iridium 33, an American commercial communications satellite, has been tracked extensively since its accidental collision with the defunct Russian satellite Cosmos 2251 in 2009. This event, occurring at high speed in low Earth orbit (LEO), generated thousands of pieces of space debris, significantly increasing the risk of further collisions. The Iridium 33 debris cloud has impacted space traffic management and orbital debris mitigation strategies, making it a subject of ongoing study in space situational awareness.

Loading next visibility...
Identifier
33792, 1993-036AH
Orbit
LEO
Country
Flag of CISCIS
Related business
Manufacturer
Unknown
Mission
Spacecraft
Bus & Motor
Unknown
Mass
Unknown
Launch date (UTC)
1993-06-16 (33 years ago)
Launch vehicle
Unknown
Launch site
Plesetsk Missile And Space Complex (PKMTR)
Object type
Payload
Rocket body
Debris
Shape & HBR
Unknown shape, 0.2 m
Radar Cross Section
Medium (>0.1 m² and <1 m²)

Expand to show TLE details & history
Last TLE update: 5 hours ago

TLE from 5 hours ago
0 COSMOS 2251 DEB
1 33792U 93036AH  26122.44894307  .00000505  00000-0  50091-3 0  9995
2 33792  73.8968 120.5618 0429505 160.7481 352.1153 13.46096428843358
Epoch: 2026-05-02T10:46Z
TLE epoch observation values (Epoch: 2026-05-02T10:46:28.681Z)
Latitude
26.71412°
Longitude
-89.73308°
Altitude
772.151 km
Speed
7.628 km/s
True Right ascension
19h 29m 00s
True Declination
26° 34' 36"
Sunlit
Object was in daylight at epoch
Visualization orbit readout
Latitude
Unknown
Longitude
Unknown
Altitude
Unknown
Speed
Unknown
Apparent Right ascension
Unknown
Apparent Declination
Unknown
Sunlit
N/A
Visualization observer readout
Local Sidereal Time
23:51:36
Azimuth
Unknown
Elevation
Unknown
Doppler factor
Unknown
Orbital elements
Apogee altitude
1,404.904 km
Perigee altitude
763.866 km
Semi-major axis
7,462.522 km
Eccentricity
0.04295
Inclination
73.8968°
RAAN
120.5618°
Arg. of periapsis
160.7481°
True anomaly
351.40232°
Mean anomaly
352.1153°
Eccentric anomaly
351.76272°
Mean motion
3.36678 °/min
Orbital period
106.93 mins
BSTAR
0.00050091
Loading maneuver chart data...
Computing Atmospheric mass density...
Loading historical data...
Loading historical data...
Loading historical data...
Loading historical data...
Loading historical data...
Loading historical data...
Loading historical data...

Documentation

Showing up to 5 results
|